Time,TemperatureF,DewpointF,PressureIn,WindDirection,WindDirectionDegrees,WindSpeedMPH,WindSpeedGustMPH,Humidity,HourlyPrecipIn,Conditions,Clouds,dailyrainin,SoftwareType,DateUTC
2013-02-10 00:00:00,22.5,19.5,29.91,SSE,157,0.0,5.0,88,0.00,,SKC,0.02,VWS V12.07,2013-02-10 07:00:00,
2013-02-10 00:30:00,22.5,19.5,29.90,SSE,157,0.0,0.0,88,0.00,,SKC,0.00,VWS V12.07,2013-02-10 07:30:00,
2013-02-10 01:00:00,22.4,19.4,29.92,SSE,157,0.0,1.0,88,0.00,,SKC,0.00,VWS V12.07,2013-02-10 08:00:00,
2013-02-10 01:30:00,22.4,19.4,29.92,SSE,157,0.0,0.0,88,0.00,,SKC,0.00,VWS V12.07,2013-02-10 08:30:00,
2013-02-10 02:00:00,21.9,18.9,29.92,NW,320,0.0,1.0,88,0.00,,SKC,0.00,VWS V12.07,2013-02-10 09:00:00,
2013-02-10 02:30:00,21.9,18.6,29.93,West,263,0.0,0.0,87,0.00,,SKC,0.00,VWS V12.07,2013-02-10 09:30:00,
2013-02-10 03:00:00,21.9,18.4,29.93,West,263,0.0,0.0,86,0.00,,SKC,0.00,VWS V12.07,2013-02-10 10:00:00,
2013-02-10 03:30:00,21.8,18.0,29.94,West,263,0.0,0.0,85,0.00,,SKC,0.00,VWS V12.07,2013-02-10 10:30:00,
2013-02-10 04:00:00,21.3,17.5,29.94,West,263,0.0,0.0,85,0.00,,SKC,0.00,VWS V12.07,2013-02-10 11:00:00,
2013-02-10 04:30:00,20.6,16.8,29.94,West,263,0.0,0.0,85,0.00,,SKC,0.00,VWS V12.07,2013-02-10 11:30:00,
2013-02-10 05:00:00,21.0,17.8,29.95,West,270,0.0,0.0,87,0.00,,SKC,0.00,VWS V12.07,2013-02-10 12:00:00,
2013-02-10 05:30:00,21.0,17.8,29.96,West,263,0.0,0.0,87,0.00,,SKC,0.00,VWS V12.07,2013-02-10 12:30:00,
2013-02-10 06:00:00,21.0,17.8,29.97,West,263,0.0,0.0,87,0.00,,SKC,0.00,VWS V12.07,2013-02-10 13:00:00,
2013-02-10 06:30:00,20.5,17.2,29.97,West,263,0.0,0.0,87,0.00,,SKC,0.00,VWS V12.07,2013-02-10 13:30:00,
2013-02-10 07:00:00,20.6,17.6,29.97,West,263,0.0,0.0,88,0.00,,SKC,0.00,VWS V12.07,2013-02-10 14:00:00,
2013-02-10 07:30:00,20.6,17.4,29.98,West,263,0.0,0.0,87,0.00,,SKC,0.00,VWS V12.07,2013-02-10 14:30:00,
2013-02-10 08:00:00,20.6,17.6,29.99,West,263,0.0,0.0,88,0.00,,SKC,0.00,VWS V12.07,2013-02-10 15:00:00,
2013-02-10 08:30:00,20.6,17.6,30.00,West,263,0.0,0.0,88,0.00,,SKC,0.00,VWS V12.07,2013-02-10 15:30:00,
2013-02-10 09:00:00,21.1,18.1,30.01,West,263,0.0,0.0,88,0.00,,SKC,0.00,VWS V12.07,2013-02-10 16:00:00,
2013-02-10 09:30:00,22.1,18.8,30.01,West,263,0.0,0.0,87,0.00,,SKC,0.00,VWS V12.07,2013-02-10 16:30:00,
2013-02-10 10:00:00,23.0,19.2,30.01,West,270,0.0,0.0,85,0.00,,SKC,0.00,VWS V12.07,2013-02-10 17:00:00,
2013-02-10 10:01:00,22.5,19.0,30.02,West,263,0.0,0.0,86,0.00,,SKC,0.00,VWS V12.07,2013-02-10 17:01:00,
2013-02-10 10:30:00,22.5,18.7,30.02,West,263,0.0,0.0,85,0.00,,SKC,0.00,VWS V12.07,2013-02-10 17:30:00,
2013-02-10 11:00:00,22.9,19.1,30.03,West,263,0.0,1.0,85,0.00,,SKC,0.00,VWS V12.07,2013-02-10 18:00:00,
2013-02-10 12:00:00,25.3,20.3,30.00,NNE,22,0.0,1.0,81,0.00,,SKC,0.00,VWS V12.07,2013-02-10 19:00:00,
2013-02-10 13:00:00,26.7,20.8,29.99,NE,45,0.0,1.0,78,0.00,,SKC,0.00,VWS V12.07,2013-02-10 20:00:00,
2013-02-10 14:00:00,25.3,19.4,30.00,NE,45,0.0,3.0,78,0.00,,SKC,0.00,VWS V12.07,2013-02-10 21:00:00,
2013-02-10 15:00:00,24.5,17.4,30.01,NE,45,0.0,4.0,74,0.00,,SKC,0.00,VWS V12.07,2013-02-10 22:00:00,
2013-02-10 16:00:00,24.8,17.4,30.02,NE,45,0.0,1.0,73,0.00,,SKC,0.00,VWS V12.07,2013-02-10 23:00:00,
2013-02-10 17:00:00,23.3,18.6,30.05,North,0,0.0,1.0,82,0.00,,SKC,0.00,VWS V12.07,2013-02-11 00:00:00,
2013-02-10 18:00:00,22.2,18.4,30.07,North,0,0.0,1.0,85,0.00,,SKC,0.00,VWS V12.07,2013-02-11 01:00:00,
2013-02-10 19:00:00,21.1,17.8,30.09,North,0,0.0,1.0,87,0.00,,SKC,0.00,VWS V12.07,2013-02-11 02:00:00,
2013-02-10 20:00:00,20.8,17.5,30.10,North,0,0.0,0.0,87,0.00,,SKC,0.00,VWS V12.07,2013-02-11 03:00:00,
2013-02-10 21:01:00,20.5,17.2,30.11,North,360,0.0,0.0,87,0.00,,SKC,0.15,VWS V12.07,2013-02-11 04:01:00,
2013-02-10 21:30:00,20.5,17.2,30.10,North,360,0.0,0.0,87,0.00,,SKC,0.15,VWS V12.07,2013-02-11 04:30:00,
2013-02-10 22:00:00,20.3,17.1,30.11,North,360,0.0,0.0,87,0.00,,SKC,0.15,VWS V12.07,2013-02-11 05:00:00,
2013-02-10 22:30:00,20.3,17.3,30.12,North,360,0.0,0.0,88,0.00,,SKC,0.15,VWS V12.07,2013-02-11 05:30:00,
2013-02-10 23:00:00,20.2,17.2,30.12,North,360,0.0,0.0,88,0.00,,SKC,0.15,VWS V12.07,2013-02-11 06:00:00,
2013-02-10 23:30:00,20.0,17.0,30.11,North,360,0.0,0.0,88,0.00,,SKC,0.15,VWS V12.07,2013-02-11 06:30:00,